Вернуться в каталог

FENGYUN 1C DEB

АктивенSSO
NORAD 31387·DEBRIS·🇨🇳 China

Запущен May 10, 1999 с Taiyuan Satellite Launch Center

Loading…

Ближайшие Пролёты (ближайшие 24 часа)

TLE

СвежийSource: Space-Track

Эпоха: Sep 14, 2026, 11:40 UTC

1 31387U 99025BST 26257.48659294  .00000289  00000-0  13444-3 0  9994
2 31387  99.1312 147.6819 0241786 114.6726 247.9830 14.13850288  1846

Отслеживайте FENGYUN 1C DEB в реальном времени с AllMySat

Download on the App Store